{"data":{"norad_id":64758,"epoch":"2026-05-24T18:34:37.654752Z","epoch_age_seconds":88372,"freshness":"FRESH","line1":"1 64758U 25147D   26144.77404693  .00020597  00000+0  61878-3 0  9991","line2":"2 64758  53.1586 248.4237 0001025  72.5172 287.5943 15.34413184 50414","mean_motion":15.34413184,"eccentricity":0.0001025,"inclination_deg":53.1586,"raan_deg":248.4237,"arg_perigee_deg":72.5172,"mean_anomaly_deg":287.5943,"bstar":0.00061878,"rev_number":5041,"period_min":93.846951721708,"perigee_km":461.96287275316,"apogee_km":463.3652369694,"semimajor_km":6840.8010548613,"source":"CELESTRAK","updated_at":"2026-05-25T13:38:20.552868Z"}}